Hutchinson, MN

3:18 PM CST on December 09, 2019 (GMT -0600)
Hutchinson Municipal-Butler

Weather History for KHCD - October, 2019

Change the Weather History Date:

Saturday, October 19, 2019

  Actual Average Record
Temperature  
Mean Temperature 51 °F -  
Max Temperature 67 °F 56 °F 84 °F (2000)
Min Temperature 35 °F 33 °F 14 °F (1972)
Degree Days  
Heating Degree Days 14    
Growing Degree Days 1 (Base 50)    
Moisture  
Dew Point 41 °F    
Average Humidity 68    
Maximum Humidity 97    
Minimum Humidity 30    
Precipitation  
Precipitation 0.00 in - - ()
Sea Level Pressure  
Sea Level Pressure 29.68 in    
Wind  
Wind Speed 5 mph (WSW)    
Max Wind Speed 13 mph    
Max Gust Speed 18 mph    
Visibility 10 miles    
Events      
Averages and records for this station are not official NWS values.
T = Trace of Precipitation, MM = Missing Value Source: NWS Daily Summary

Daily Weather History Graph

Daily Weather History Graph

Search for Another Location

Airport or City:

Astronomy

Oct. 19, 2019 Rise Set
Actual Time 7:38 AM CDT 6:26 PM CDT
Civil Twilight 7:08 AM CDT 6:55 PM CDT
Nautical Twilight 6:34 AM CDT 7:29 PM CDT
Astronomical Twilight 6:00 AM CDT 8:03 PM CDT
Moon 10:25 PM CDT (10/19) 1:21 PM CDT (10/19)
Length of Visible Light 11h 47m
Length of Day
10h 48m
Waning Gibbous, 69% of the Moon is Illuminated
Oct 19
Waning Gibbous
Oct 21
Last Quarter
Oct 27
New
Nov 4
First Quarter
Nov 12
Full

Hourly Weather History & Observations

Time (CDT) Temp. Windchill Dew Point Humidity Pressure Visibility Wind Dir Wind Speed Gust Speed Precip Events Conditions
12:15 AM 56.1 °F - 46.0 °F 69% 29.56 in 10.0 mi WSW 4.6 mph - N/A   Clear
12:16 AM 56.1 °F - 46.0 °F 69% 29.56 in 10.0 mi WSW 4.6 mph - N/A   Clear
12:35 AM 54.5 °F - 46.4 °F 74% 29.56 in 10.0 mi West 4.6 mph - N/A   Clear
12:36 AM 54.5 °F - 46.4 °F 74% 29.56 in 10.0 mi West 4.6 mph - N/A   Clear
12:58 AM 53.4 °F - 46.6 °F 78% 29.57 in 10.0 mi WSW 4.6 mph - N/A   Clear
1:16 AM 52.2 °F - 46.6 °F 81% 29.58 in 10.0 mi WSW 4.6 mph - N/A   Clear
1:35 AM 50.9 °F - 46.4 °F 85% 29.59 in 10.0 mi WSW 4.6 mph - N/A   Clear
1:55 AM 50.0 °F - 46.0 °F 86% 29.60 in 10.0 mi WSW 3.5 mph - N/A   Clear
2:15 AM 50.2 °F - 46.6 °F 87% 29.62 in 10.0 mi West 5.8 mph - N/A   Clear
2:19 AM 50.0 °F - 46.6 °F 88% 29.62 in 10.0 mi West 6.9 mph - N/A   Clear
2:37 AM 50.2 °F - 46.8 °F 88% 29.62 in 10.0 mi West 6.9 mph - N/A   Clear
2:56 AM 49.8 °F - 46.2 °F 87% 29.62 in 10.0 mi West 6.9 mph - N/A   Clear
3:15 AM 48.6 °F - 45.5 °F 89% 29.63 in 10.0 mi West 4.6 mph - N/A   Clear
3:16 AM 48.6 °F - 45.5 °F 89% 29.63 in 10.0 mi West 4.6 mph - N/A   Clear
3:35 AM 47.3 °F - 44.8 °F 91% 29.63 in 10.0 mi WSW 3.5 mph - N/A   Clear
3:36 AM 47.3 °F - 44.8 °F 91% 29.63 in 10.0 mi WSW 3.5 mph - N/A   Clear
3:59 AM 46.4 °F 44.3 °F 44.2 °F 92% 29.63 in 10.0 mi West 4.6 mph - N/A   Clear
4:16 AM 46.6 °F - 44.2 °F 92% 29.63 in 10.0 mi WSW 4.6 mph - N/A   Clear
4:36 AM 47.3 °F - 44.2 °F 89% 29.64 in 10.0 mi SW 4.6 mph - N/A   Scattered Clouds
4:55 AM 48.2 °F - 44.6 °F 87% 29.65 in 10.0 mi WSW 4.6 mph - N/A   Overcast
4:56 AM 48.0 °F - 44.6 °F 88% 29.65 in 10.0 mi WSW 4.6 mph - N/A   Overcast
5:15 AM 48.2 °F - 44.6 °F 87% 29.66 in 10.0 mi SSW 3.5 mph - N/A   Overcast
5:19 AM 48.4 °F - 44.6 °F 87% 29.66 in 10.0 mi SSW 3.5 mph - N/A   Overcast
5:38 AM 48.6 °F - 44.6 °F 86% 29.67 in 10.0 mi SW 3.5 mph - N/A   Overcast
5:55 AM 48.4 °F - 44.6 °F 87% 29.67 in 10.0 mi WSW 3.5 mph - N/A   Overcast
6:15 AM 48.2 °F - 44.6 °F 87% 29.67 in 10.0 mi Calm Calm - N/A   Overcast
6:16 AM 48.2 °F - 44.6 °F 87% 29.67 in 10.0 mi Calm Calm - N/A   Overcast
6:35 AM 48.2 °F - 44.6 °F 87% 29.66 in 10.0 mi Calm Calm - N/A   Overcast
6:36 AM 48.2 °F - 44.6 °F 87% 29.66 in 10.0 mi Calm Calm - N/A   Overcast
6:59 AM 48.6 °F - 44.6 °F 86% 29.66 in 10.0 mi Calm Calm - N/A   Overcast
7:16 AM 48.0 °F - 44.6 °F 88% 29.67 in 10.0 mi SW 3.5 mph - N/A   Overcast
7:35 AM 48.4 °F - 44.4 °F 86% 29.68 in 10.0 mi WSW 5.8 mph - N/A   Overcast
7:36 AM 48.4 °F - 44.4 °F 86% 29.68 in 10.0 mi WSW 4.6 mph - N/A   Overcast
7:55 AM 48.6 °F - 44.2 °F 85% 29.68 in 10.0 mi SW 3.5 mph - N/A   Mostly Cloudy
7:56 AM 48.4 °F - 44.1 °F 85% 29.68 in 10.0 mi SW 3.5 mph - N/A   Mostly Cloudy
8:15 AM 48.6 °F - 44.1 °F 84% 29.69 in 10.0 mi SW 4.6 mph - N/A   Scattered Clouds
8:16 AM 48.6 °F - 44.1 °F 84% 29.69 in 10.0 mi SW 4.6 mph - N/A   Scattered Clouds
8:38 AM 48.6 °F - 44.1 °F 84% 29.70 in 10.0 mi SW 3.5 mph - N/A   Clear
8:56 AM 48.6 °F - 44.6 °F 86% 29.70 in 10.0 mi Calm Calm - N/A   Clear
9:16 AM 50.0 °F - 44.6 °F 82% 29.70 in 10.0 mi SW 3.5 mph - N/A   Clear
9:35 AM 51.3 °F - 45.0 °F 79% 29.71 in 10.0 mi WSW 6.9 mph - N/A   Clear
9:36 AM 51.4 °F - 45.0 °F 79% 29.71 in 10.0 mi WSW 5.8 mph - N/A   Clear
9:55 AM 53.2 °F - 44.4 °F 72% 29.70 in 10.0 mi WSW 5.8 mph - N/A   Clear
9:59 AM 53.2 °F - 44.1 °F 71% 29.70 in 10.0 mi WSW 5.8 mph - N/A   Clear
10:17 AM 54.7 °F - 43.5 °F 66% 29.70 in 10.0 mi WSW 6.9 mph - N/A   Clear
10:36 AM 56.7 °F - 43.3 °F 61% 29.71 in 10.0 mi WSW 8.1 mph - N/A   Clear
10:55 AM 57.9 °F - 42.8 °F 57% 29.70 in 10.0 mi West 6.9 mph - N/A   Clear
10:56 AM 57.9 °F - 42.6 °F 57% 29.70 in 10.0 mi West 6.9 mph - N/A   Clear
11:15 AM 59.0 °F - 43.0 °F 55% 29.71 in 10.0 mi West 6.9 mph - N/A   Clear
11:19 AM 58.8 °F - 42.8 °F 55% 29.70 in 10.0 mi SW 6.9 mph - N/A   Clear
11:38 AM 61.2 °F - 42.1 °F 50% 29.71 in 10.0 mi West 8.1 mph - N/A   Clear
11:55 AM 61.9 °F - 42.3 °F 49% 29.71 in 10.0 mi West 6.9 mph - N/A   Clear
12:15 PM 62.4 °F - 42.6 °F 48% 29.70 in 10.0 mi WSW 6.9 mph - N/A   Clear
12:16 PM 62.4 °F - 42.4 °F 48% 29.71 in 10.0 mi WSW 6.9 mph - N/A   Clear
12:35 PM 64.4 °F - 41.4 °F 43% 29.70 in 10.0 mi West 6.9 mph - N/A   Clear
12:58 PM 65.1 °F - 39.9 °F 40% 29.70 in 10.0 mi West 9.2 mph - N/A   Clear
1:17 PM 65.3 °F - 39.6 °F 39% 29.69 in 10.0 mi WSW 9.2 mph - N/A   Clear
1:36 PM 65.7 °F - 39.2 °F 38% 29.69 in 10.0 mi WSW 9.2 mph - N/A   Clear
1:55 PM 66.4 °F - 39.0 °F 37% 29.68 in 10.0 mi WSW 9.2 mph - N/A   Clear
1:56 PM 66.4 °F - 38.8 °F 36% 29.68 in 10.0 mi WSW 6.9 mph - N/A   Clear
2:15 PM 66.6 °F - 37.9 °F 35% 29.68 in 10.0 mi West 6.9 mph - N/A   Clear
2:19 PM 66.4 °F - 37.9 °F 35% 29.68 in 10.0 mi WSW 10.4 mph 16.1 mph N/A   Clear
2:55 PM 67.3 °F - 37.2 °F 33% 29.67 in 10.0 mi West 10.4 mph 16.1 mph N/A   Clear
3:15 PM 67.3 °F - 37.4 °F 33% 29.67 in 10.0 mi West 6.9 mph - N/A   Clear
3:16 PM 67.3 °F - 37.4 °F 33% 29.67 in 10.0 mi West 6.9 mph - N/A   Clear
3:35 PM 67.1 °F - 34.9 °F 30% 29.67 in 10.0 mi WSW 6.9 mph 18.4 mph N/A   Clear
3:39 PM 67.3 °F - 35.1 °F 30% 29.67 in 10.0 mi West 12.7 mph - N/A   Clear
3:56 PM 67.1 °F - 35.6 °F 31% 29.67 in 10.0 mi WSW 10.4 mph - N/A   Clear
4:15 PM 66.6 °F - 34.0 °F 30% 29.67 in 10.0 mi WSW 9.2 mph 16.1 mph N/A   Clear
4:16 PM 66.6 °F - 34.2 °F 30% 29.67 in 10.0 mi WSW 9.2 mph 16.1 mph N/A   Clear
4:35 PM 66.2 °F - 35.4 °F 32% 29.67 in 10.0 mi West 8.1 mph - N/A   Clear
4:36 PM 66.2 °F - 35.4 °F 32% 29.67 in 10.0 mi West 6.9 mph - N/A   Clear
4:55 PM 65.5 °F - 34.0 °F 31% 29.68 in 10.0 mi West 8.1 mph - N/A   Clear
4:59 PM 65.3 °F - 33.1 °F 30% 29.68 in 10.0 mi West 10.4 mph - N/A   Clear
5:18 PM 64.4 °F - 34.5 °F 33% 29.68 in 10.0 mi West 6.9 mph - N/A   Clear
5:55 PM 61.9 °F - 35.2 °F 37% 29.69 in 10.0 mi West 4.6 mph - N/A   Clear
5:56 PM 61.7 °F - 35.2 °F 37% 29.69 in 10.0 mi West 4.6 mph - N/A   Clear
6:15 PM 59.2 °F - 35.2 °F 41% 29.70 in 10.0 mi West 4.6 mph - N/A   Clear
6:16 PM 59.0 °F - 35.2 °F 41% 29.70 in 10.0 mi West 4.6 mph - N/A   Clear
6:38 PM 55.0 °F - 35.8 °F 48% 29.71 in 10.0 mi WSW 4.6 mph - N/A   Clear
6:56 PM 52.9 °F - 36.5 °F 54% 29.71 in 10.0 mi WSW 4.6 mph - N/A   Clear
7:16 PM 51.4 °F - 36.7 °F 57% 29.72 in 10.0 mi West 4.6 mph - N/A   Clear
7:35 PM 50.2 °F - 36.5 °F 59% 29.73 in 10.0 mi WSW 3.5 mph - N/A   Clear
7:36 PM 49.8 °F - 36.7 °F 61% 29.73 in 10.0 mi WSW 3.5 mph - N/A   Clear
7:55 PM 45.0 °F 43.5 °F 38.3 °F 77% 29.73 in 10.0 mi SW 3.5 mph - N/A   Clear
7:59 PM 45.7 °F - 37.9 °F 74% 29.73 in 10.0 mi Calm Calm - N/A   Clear
8:17 PM 44.4 °F - 37.8 °F 77% 29.74 in 10.0 mi Calm Calm - N/A   Clear
8:36 PM 43.0 °F 40.3 °F 38.1 °F 83% 29.74 in 10.0 mi WSW 4.6 mph - N/A   Clear
8:55 PM 43.9 °F 42.3 °F 36.9 °F 76% 29.74 in 10.0 mi WSW 3.5 mph - N/A   Clear
9:15 PM 41.4 °F - 36.5 °F 83% 29.74 in 10.0 mi Calm Calm - N/A   Clear
9:19 PM 41.4 °F - 36.5 °F 83% 29.75 in 10.0 mi Calm Calm - N/A   Clear
9:37 PM 40.3 °F - 36.7 °F 87% 29.75 in 10.0 mi Calm Calm - N/A   Clear
9:56 PM 41.7 °F - 35.4 °F 78% 29.75 in 10.0 mi Calm Calm - N/A   Clear
10:15 PM 38.5 °F - 35.6 °F 89% 29.75 in 10.0 mi Calm Calm - N/A   Clear
10:16 PM 38.5 °F - 35.6 °F 89% 29.75 in 10.0 mi Calm Calm - N/A   Clear
10:35 PM 38.5 °F - 35.6 °F 89% 29.75 in 10.0 mi Calm Calm - N/A   Clear
10:36 PM 38.3 °F - 35.6 °F 90% 29.75 in 10.0 mi Calm Calm - N/A   Clear
10:58 PM 37.8 °F - 35.8 °F 93% 29.75 in 10.0 mi Calm Calm - N/A   Clear
11:16 PM 36.5 °F - 35.4 °F 96% 29.75 in 10.0 mi Calm Calm - N/A   Clear
11:35 PM 35.8 °F - 34.7 °F 96% 29.76 in 10.0 mi Calm Calm - N/A   Clear
11:36 PM 35.8 °F - 34.7 °F 96% 29.76 in 10.0 mi Calm Calm - N/A   Clear
11:55 PM 36.0 °F - 35.1 °F 97% 29.76 in 10.0 mi Calm Calm - N/A   Clear
11:56 PM 36.0 °F - 35.1 °F 97% 29.76 in 10.0 mi Calm Calm - N/A   Clear